[[{"header":{"parameterUnit":"m.s-1","parameterCategory":1,"la1":30.2991,"la2":30.254,"lo1":-89.0895,"lo2":-89.0444,"dy":0.0017,"dx":0.0017,"nx":28,"ny":28,"refTime":"2025-04-11T09:00:00:Z","depth":0,"parameterNumber":2,"parameterNumberName":"U-component_of_WINDS"},"data":[0,0,0,0,0,0,0,0,0,0,0,0,0,0,0,0,0,0,0,0,0,0,0,0,0,0,0,0,0,0,0,0,0,0,0,0,0,0,0,0,0,0,0,0,0,0,0,0,0,0,0,0,0,0,0,0,0,0,1.6421,1.6422,0,1.653,1.6532,1.6533,1.655,1.6549,1.6548,1.6547,1.6664,1.6668,1.6672,0,0,0,0,0,0,0,0,0,0,0,0,0,1.6232,1.6235,1.6421,1.6422,1.6423,1.653,1.6532,1.6533,1.655,1.6549,1.6548,1.6547,1.6663,1.6667,1.6672,0,0,0,0,0,0,0,0,0,0,0,0,0,1.6325,1.6236,1.642,1.6445,1.6448,1.653,1.6532,1.6534,1.6551,1.6549,1.6548,1.6546,1.6661,1.6667,1.6673,1.6739,0,0,1.6691,1.6694,0,0,0,0,0,0,0,0,1.632,1.6332,1.644,1.6443,1.6447,1.6525,1.6508,1.6603,1.6551,1.6512,1.6547,1.6546,1.6619,1.6629,1.6652,1.6745,1.675,1.6692,1.6695,1.6698,1.67,0,0,0,0,0,0,0,1.6313,1.6327,1.6464,1.6441,1.6446,1.6452,1.6464,1.6526,1.6573,1.6515,1.6517,1.6529,1.6621,1.6647,1.6655,1.6751,1.6692,1.6697,1.6701,1.6703,1.6907,1.6909,0,0,0,0,0,0,1.6302,1.6322,1.6461,1.6467,1.6378,1.6457,1.647,1.6502,1.6572,1.6581,1.653,1.653,1.6637,1.6648,1.6659,1.6744,1.6698,1.6704,1.6707,1.6905,1.6907,1.6909,0,0,0,0,0,0,1.6297,1.6314,1.6456,1.6395,1.6414,1.6461,1.6497,1.6505,1.653,1.6583,1.6592,1.6548,1.6636,1.6651,1.672,1.6748,1.6706,1.6712,1.6903,1.6906,1.6908,1.6911,0,0,0,0,0,0,1.6292,1.6312,1.6336,1.6395,1.6417,1.6513,1.6499,1.6508,1.654,1.654,1.6602,1.6611,1.6636,1.6711,1.6726,1.6755,1.6716,1.6901,1.6904,1.6907,1.6909,1.6914,1.6918,0,0,0,0,0,1.6285,1.6333,1.6337,1.6354,1.6448,1.6514,1.6527,1.6554,1.6542,1.6568,1.6603,1.6609,1.6742,1.6717,1.6735,1.6767,1.6899,1.6903,1.6907,1.6907,1.6913,1.6918,0,0,0,0,0,0,1.6277,1.6341,1.6347,1.6415,1.6459,1.6517,1.655,1.6559,1.6608,1.6606,1.6639,1.6653,1.6721,1.6751,1.6722,1.6836,1.682,1.6828,1.6814,1.682,1.6824,1.6816,1.6721,0,0,0,0,0,1.6283,1.633,1.6384,1.6439,1.6461,1.6502,1.6532,1.6549,1.6597,1.6616,1.6655,1.6702,1.6755,1.6789,1.6841,1.6913,1.6928,1.6944,1.6949,1.6952,1.6958,1.7002,1.701,1.6923,1.6922,1.6922,0,0,1.6296,1.6337,1.6365,1.6439,1.6475,1.6525,1.6517,1.657,1.6608,1.6624,1.6691,1.6722,1.6777,1.6849,1.6882,1.6876,1.6986,1.6957,1.6959,1.6964,1.7007,1.7015,1.7022,1.6925,1.6925,1.6924,0,0,1.6346,1.6381,1.6431,1.6468,1.6523,1.655,1.6562,1.6619,1.664,1.6708,1.6722,1.6768,1.6858,1.6897,1.6929,1.6996,1.7004,1.7012,1.7036,1.7077,1.7084,1.7091,1.7116,1.7125,1.7018,1.7018,1.7018,0,1.6356,1.643,1.6457,1.6509,1.6543,1.6559,1.6612,1.6646,1.6715,1.6739,1.673,1.6845,1.6883,1.6965,1.6981,1.7006,1.7023,1.7005,1.7081,1.7088,1.7094,1.7119,1.7128,1.7019,1.7019,1.7019,1.7019,0,1.644,1.6492,1.6526,1.6592,1.6629,1.6682,1.6719,1.6753,1.6768,1.6797,1.6867,1.6914,1.6976,1.6997,1.7011,1.7082,1.7076,1.7074,1.7058,1.7102,1.7126,1.7136,1.702,1.702,1.7019,1.7019,0,0,1.6487,1.6568,1.658,1.6611,1.6674,1.6715,1.6769,1.6829,1.6859,1.6907,1.6955,1.7031,1.703,1.7066,1.7086,1.7123,1.7175,1.7116,1.7118,1.7127,1.7258,1.726,1.727,1.7181,1.7183,1.7185,1.7254,0,1.6545,1.6641,1.6668,1.6749,1.6799,1.6816,1.6864,1.6909,1.6938,1.6985,1.7018,1.7072,1.7065,1.7088,1.7124,1.7161,1.7202,1.7156,1.7228,1.723,1.7214,1.7282,1.7284,1.7347,1.7263,1.7265,1.7266,0,1.6625,1.6674,1.676,1.6818,1.684,1.6882,1.694,1.6985,1.7037,1.7056,1.7097,1.7114,1.7174,1.7155,1.724,1.7208,1.7239,1.7262,1.7265,1.7273,1.7251,1.7294,1.7368,1.7377,1.7281,1.728,1.7278,0,1.6652,1.674,1.6803,1.6829,1.6898,1.6928,1.6958,1.7008,1.7043,1.7095,1.7119,1.7177,1.7209,1.7255,1.7288,1.7271,1.737,1.7354,1.7389,1.7389,1.741,1.7408,1.7491,1.7428,1.7428,1.7428,1.7428,0,1.6714,1.6767,1.6816,1.6856,1.6916,1.6948,1.7007,1.7039,1.7084,1.7131,1.715,1.7195,1.7235,1.7286,1.7313,1.738,1.7394,1.7412,1.7419,1.7411,1.7409,1.7432,1.7429,1.743,1.743,1.7429,1.7429,0,1.6755,1.679,1.686,1.692,1.6937,1.6979,1.7031,1.7071,1.7101,1.7161,1.7177,1.7225,1.7285,1.7323,1.74,1.7418,1.7493,1.7497,1.7474,1.7478,1.7512,1.7508,1.7613,1.7629,1.7555,1.7556,1.7556,0,1.6792,1.6833,1.6898,1.693,1.6961,1.7013,1.7049,1.7082,1.7119,1.7183,1.7216,1.7278,1.7329,1.7425,1.7468,1.7528,1.7535,1.7568,1.7544,1.7536,1.7537,1.7535,1.754,1.7572,1.7572,1.7573,1.7573,0,1.6856,1.6872,1.6922,1.6979,1.7021,1.7068,1.7115,1.7141,1.7183,1.7224,1.7286,1.7325,1.7405,1.7467,1.753,1.7564,1.7577,1.758,1.7592,1.7585,1.757,1.758,1.7486,1.7578,1.7577,1.7577,1.7577,1.7577,1.6898,1.6936,1.6987,1.7043,1.7082,1.7126,1.7167,1.7202,1.7254,1.732,1.7337,1.7403,1.7457,1.7543,1.7579,1.7632,1.7627,1.7644,1.7648,1.7652,1.7653,1.7561,1.7643,1.7643,1.7643,1.7643,1.7643,0,1.6964,1.6998,1.7049,1.7114,1.7159,1.7165,1.7218,1.7256,1.7312,1.7361,1.7411,1.7483,1.7544,1.7592,1.7655,1.7689,1.7696,1.7704,1.7702,1.771,1.7653,1.7637,1.7697,1.7697,1.7697,1.7697,1.7697,1.7697,1.7003,1.7068,1.709,1.7176,1.7211,1.7274,1.7304,1.7345,1.7384,1.7464,1.7514,1.7544,1.7594,1.7661,1.7718,1.773,1.7753,1.7761,1.7775,1.772,1.7714,1.7709,1.7694,1.7765,1.7765,1.7828,1.7829,1.7829]},{"header":{"parameterUnit":"m.s-1","parameterCategory":1,"la1":30.2991,"la2":30.254,"lo1":-89.0895,"lo2":-89.0444,"dy":0.0017,"dx":0.0017,"nx":28,"ny":28,"refTime":"2025-04-11T09:00:00:Z","depth":0,"parameterNumber":3,"parameterNumberName":"V-component_of_WINDS"},"data":[0,0,0,0,0,0,0,0,0,0,0,0,0,0,0,0,0,0,0,0,0,0,0,0,0,0,0,0,0,0,0,0,0,0,0,0,0,0,0,0,0,0,0,0,0,0,0,0,0,0,0,0,0,0,0,0,0,0,-1.1044,-1.1044,0,-1.1036,-1.1036,-1.1036,-1.113,-1.1132,-1.1135,-1.1138,-1.1124,-1.1121,-1.1118,0,0,0,0,0,0,0,0,0,0,0,0,0,-1.1136,-1.1134,-1.1044,-1.1044,-1.1044,-1.1036,-1.1036,-1.1036,-1.1129,-1.1133,-1.1136,-1.1139,-1.1125,-1.1121,-1.1118,0,0,0,0,0,0,0,0,0,0,0,0,0,-1.1109,-1.1133,-1.1044,-1.109,-1.1094,-1.1036,-1.1036,-1.1036,-1.1129,-1.1133,-1.1137,-1.114,-1.1126,-1.1122,-1.1118,-1.1014,0,0,-1.1105,-1.1103,0,0,0,0,0,0,0,0,-1.111,-1.1105,-1.1083,-1.1086,-1.1091,-1.1088,-1.1064,-1.1028,-1.1128,-1.1115,-1.1138,-1.1142,-1.1108,-1.1106,-1.1096,-1.1014,-1.1013,-1.1105,-1.1102,-1.11,-1.1099,0,0,0,0,0,0,0,-1.1112,-1.1106,-1.1041,-1.1082,-1.1087,-1.1109,-1.111,-1.1057,-1.109,-1.1117,-1.1123,-1.1122,-1.1111,-1.1099,-1.1096,-1.1013,-1.1105,-1.1101,-1.1098,-1.1097,-1.0848,-1.0844,0,0,0,0,0,0,-1.1108,-1.1107,-1.1041,-1.104,-1.111,-1.1105,-1.1105,-1.1085,-1.1091,-1.1096,-1.1118,-1.1126,-1.1105,-1.1101,-1.1096,-1.0977,-1.11,-1.1096,-1.1094,-1.0852,-1.0847,-1.0843,0,0,0,0,0,0,-1.111,-1.1102,-1.1041,-1.1076,-1.107,-1.1099,-1.1075,-1.1083,-1.1071,-1.1092,-1.1098,-1.11,-1.1108,-1.1102,-1.1035,-1.0978,-1.1095,-1.1091,-1.0857,-1.0851,-1.0845,-1.0737,0,0,0,0,0,0,-1.1112,-1.1102,-1.1063,-1.1074,-1.1068,-1.0981,-1.1072,-1.108,-1.1064,-1.1074,-1.1077,-1.1081,-1.111,-1.1041,-1.1031,-1.0974,-1.1087,-1.0862,-1.0854,-1.0847,-1.0746,-1.0728,-1.0713,0,0,0,0,0,-1.1115,-1.1031,-1.1061,-1.1052,-1.102,-1.0977,-1.0973,-1.101,-1.1059,-1.1021,-1.1035,-1.1081,-1.0986,-1.1033,-1.1023,-1.0964,-1.0866,-1.0857,-1.0848,-1.0753,-1.0732,-1.0713,0,0,0,0,0,0,-1.1009,-1.1033,-1.1066,-1.0983,-1.0978,-1.0993,-1.0945,-1.0985,-1.0964,-1.0974,-1.1019,-1.1019,-1.0945,-1.0948,-1.1,-1.0866,-1.0935,-1.0923,-1.0866,-1.0846,-1.083,-1.083,-1.1084,0,0,0,0,0,-1.0977,-1.0941,-1.0964,-1.0888,-1.0884,-1.0915,-1.0898,-1.0927,-1.0922,-1.092,-1.0929,-1.0921,-1.089,-1.0868,-1.084,-1.0747,-1.075,-1.0702,-1.0685,-1.0672,-1.0661,-1.0614,-1.0593,-1.0813,-1.0813,-1.0813,0,0,-1.0908,-1.0917,-1.0891,-1.0867,-1.0867,-1.0828,-1.0912,-1.0867,-1.0839,-1.0912,-1.0851,-1.0857,-1.0852,-1.0772,-1.0737,-1.0772,-1.0601,-1.066,-1.0649,-1.0645,-1.0602,-1.0581,-1.0563,-1.0806,-1.0807,-1.0808,0,0,-1.0764,-1.0767,-1.0706,-1.0704,-1.0704,-1.0725,-1.071,-1.072,-1.0728,-1.0668,-1.0723,-1.0689,-1.0634,-1.0629,-1.0619,-1.0476,-1.0519,-1.0466,-1.0379,-1.0333,-1.0315,-1.03,-1.0251,-1.0232,-1.0455,-1.0455,-1.0455,0,-1.0678,-1.0624,-1.0668,-1.0621,-1.061,-1.0677,-1.0616,-1.0612,-1.06,-1.059,-1.063,-1.0565,-1.0565,-1.0486,-1.0452,-1.0441,-1.0426,-1.0465,-1.0315,-1.03,-1.0287,-1.024,-1.0221,-1.0448,-1.0449,-1.045,-1.045,0,-1.052,-1.0481,-1.0432,-1.0423,-1.0406,-1.0351,-1.0387,-1.0364,-1.0396,-1.0413,-1.0351,-1.0355,-1.0331,-1.0314,-1.0343,-1.024,-1.0262,-1.0307,-1.0377,-1.0259,-1.0215,-1.0198,-1.0439,-1.0442,-1.0444,-1.0445,0,0,-1.0306,-1.0326,-1.0307,-1.0305,-1.031,-1.0281,-1.023,-1.0209,-1.0189,-1.0179,-1.0138,-1.0091,-1.0135,-1.0123,-1.0153,-1.0112,-1.0001,-1.0163,-1.0164,-1.0133,-0.9889,-0.9855,-0.9833,-1.0029,-1.0026,-1.0024,-0.989,0,-1.0167,-1.0083,-1.0123,-1.0034,-1.0,-1.0066,-1.0022,-1.002,-1.0035,-1.0008,-1.0024,-0.9991,-1.005,-1.0044,-1.0007,-1.0022,-0.9952,-1.0032,-0.9991,-0.9989,-0.9991,-0.9811,-0.9774,-0.9647,-0.9873,-0.987,-0.9868,0,-0.9992,-0.998,-0.9888,-0.9903,-0.989,-0.985,-0.9836,-0.9809,-0.9808,-0.9823,-0.9812,-0.9851,-0.9802,-0.9872,-0.9806,-0.9859,-0.9845,-0.985,-0.9846,-0.9843,-0.9921,-0.9803,-0.9607,-0.9589,-0.9842,-0.9844,-0.9846,0,-0.9847,-0.9807,-0.9748,-0.9744,-0.9759,-0.973,-0.9735,-0.9739,-0.9724,-0.9711,-0.9702,-0.9682,-0.967,-0.9654,-0.9687,-0.9735,-0.9616,-0.9688,-0.9626,-0.9625,-0.9597,-0.9599,-0.9397,-0.9587,-0.9587,-0.9588,-0.9588,0,-0.9688,-0.9629,-0.9684,-0.9647,-0.9584,-0.9631,-0.9567,-0.9578,-0.9582,-0.9548,-0.9603,-0.957,-0.9616,-0.9587,-0.9612,-0.9554,-0.9548,-0.9558,-0.9566,-0.9554,-0.9552,-0.9544,-0.9554,-0.9583,-0.9584,-0.9585,-0.9586,0,-0.9514,-0.9548,-0.9489,-0.951,-0.9514,-0.9466,-0.9484,-0.9451,-0.9472,-0.9429,-0.9421,-0.9453,-0.9422,-0.9455,-0.9425,-0.9442,-0.9364,-0.9384,-0.9365,-0.9371,-0.9307,-0.9313,-0.9093,-0.9067,-0.9274,-0.9272,-0.927,0,-0.941,-0.9368,-0.9386,-0.9369,-0.9371,-0.9342,-0.9329,-0.9374,-0.9358,-0.9356,-0.9323,-0.9298,-0.9281,-0.9229,-0.9248,-0.9227,-0.9247,-0.9172,-0.9244,-0.9234,-0.9247,-0.9249,-0.9246,-0.9157,-0.9154,-0.9152,-0.915,0,-0.9222,-0.9242,-0.9223,-0.9209,-0.9193,-0.9183,-0.9178,-0.916,-0.9207,-0.9186,-0.9158,-0.9144,-0.9117,-0.9091,-0.9076,-0.908,-0.9122,-0.9128,-0.9113,-0.91,-0.9091,-0.9096,-0.9326,-0.9132,-0.9134,-0.9136,-0.9137,-0.9137,-0.9081,-0.9047,-0.9056,-0.9033,-0.9034,-0.9029,-0.9,-0.9019,-0.8997,-0.898,-0.9007,-0.8971,-0.8974,-0.8959,-0.8958,-0.8931,-0.8963,-0.894,-0.8934,-0.8928,-0.8919,-0.9096,-0.8928,-0.8928,-0.8929,-0.8929,-0.893,0,-0.8897,-0.8907,-0.8885,-0.8879,-0.886,-0.8906,-0.8903,-0.8884,-0.8853,-0.8853,-0.8836,-0.8804,-0.8781,-0.88,-0.878,-0.8754,-0.8773,-0.8748,-0.875,-0.875,-0.8891,-0.8907,-0.8733,-0.8733,-0.8733,-0.8733,-0.8733,-0.8733,-0.8799,-0.8746,-0.8767,-0.8715,-0.8725,-0.8693,-0.8688,-0.8683,-0.8684,-0.8647,-0.8629,-0.8643,-0.8651,-0.8633,-0.8613,-0.862,-0.861,-0.8577,-0.859,-0.8721,-0.874,-0.8759,-0.8774,-0.8574,-0.8574,-0.8452,-0.8451,-0.845]}]]